FW9285 Weather Reports


Display with metric or nautical units.
time (UTC)temp
F
wind
direction
speed
MPH
gust
MPH
rain 1hr
in
rain 24hr
in
rain mn
in
humidity
%
barometer
mb
20260904215711 102 344 3.0 6.0 0.00 0.00 0.00 30 1010.4
20260904214711 102 150 4.0 7.0 0.00 0.00 0.00 30 1010.6
20260904213712 102 246 3.0 8.0 0.00 0.00 0.00 31 1010.9
20260904212711 103 13 0.0 5.0 0.00 0.00 0.00 31 1010.9
20260904211712 102 296 3.0 6.0 0.00 0.00 0.00 32 1011.1
20260904204711 100 198 3.0 7.0 0.00 0.00 0.00 33 1011.5
20260904202711 101 200 3.0 6.0 0.00 0.00 0.00 35 1011.7
20260904201712 100 147 2.0 6.0 0.00 0.00 0.00 37 1011.8
20260904200713 98 149 4.0 10.0 0.00 0.00 0.00 38 1011.8
20260904195711 97 60 0.0 5.0 0.00 0.00 0.00 41 1011.7
20260904193711 99 340 0.0 7.0 0.00 0.00 0.00 39 1012.3
20260904191710 98 206 2.0 6.0 0.00 0.00 0.00 40 1012.4
20260904190711 96 164 2.0 7.0 0.00 0.00 0.00 42 1012.6
20260904185715 97 150 5.0 7.0 0.00 0.00 0.00 42 1012.8
20260904184710 96 172 2.0 6.0 0.00 0.00 0.00 42 1012.7
20260904183718 97 147 3.0 9.0 0.00 0.00 0.00 43 1013.3
20260904182711 95 137 3.0 6.0 0.00 0.00 0.00 45 1013.3
20260904181711 95 167 4.0 6.0 0.00 0.00 0.00 45 1013.5
20260904180712 97 226 2.0 7.0 0.00 0.00 0.00 44 1013.8
20260904175711 95 135 2.0 8.0 0.00 0.00 0.00 46 1013.6
20260904174711 94 153 1.0 7.0 0.00 0.00 0.00 47 1014.0
20260904173721 94 159 3.0 7.0 0.00 0.00 0.00 48 1013.9
20260904172711 94 165 2.0 5.0 0.00 0.00 0.00 48 1013.9
20260904171711 93 165 0.0 9.0 0.00 0.00 0.00 49 1014.1
20260904165711 92 213 1.0 8.0 0.00 0.00 0.00 52 1013.8
20260904164711 91 189 2.0 8.0 0.00 0.00 0.00 52 1013.8
20260904163711 92 139 1.0 7.0 0.00 0.00 0.00 51 1013.9
20260904162711 90 171 5.0 7.0 0.00 0.00 0.00 52 1013.6
20260904161711 92 151 1.0 8.0 0.00 0.00 0.00 51 1013.8
20260904160711 90 174 4.0 7.0 0.00 0.00 0.00 54 1013.5
20260904155712 90 180 4.0 7.0 0.00 0.00 0.00 55 1013.8
20260904153712 89 155 2.0 7.0 0.00 0.00 0.00 56 1013.4
20260904152711 88 172 4.0 9.0 0.00 0.00 0.00 58 1013.4
20260904151712 88 158 2.0 8.0 0.00 0.00 0.00 59 1013.4
20260904145711 87 178 3.0 6.0 0.00 0.00 0.00 61 1013.3
20260904144711 85 179 4.0 6.0 0.00 0.00 0.00 62 1013.3
20260904143711 84 213 2.0 5.0 0.00 0.00 0.00 65 1013.3
20260904142711 84 192 2.0 4.0 0.00 0.00 0.00 65 1013.1
20260904141711 84 233 0.0 3.0 0.00 0.00 0.00 66 1013.1
20260904140712 83 198 0.0 3.0 0.00 0.00 0.00 66 1012.9
20260904135712 83 251 0.0 3.0 0.00 0.00 0.00 67 1012.9
20260904134711 82 209 0.0 2.0 0.00 0.00 0.00 68 1012.8
20260904133711 82 174 1.0 2.0 0.00 0.00 0.00 70 1012.6
20260904132711 81 232 0.0 2.0 0.00 0.00 0.00 71 1012.7
20260904130712 81 226 1.0 2.0 0.00 0.00 0.00 71 1012.2
20260904125711 81 205 2.0 3.0 0.00 0.00 0.00 70 1012.2
20260904124711 81 218 2.0 2.0 0.00 0.00 0.00 70 1012.0
20260904121712 82 212 1.0 3.0 0.00 0.00 0.00 68 1011.7
20260904120713 82 165 1.0 2.0 0.00 0.00 0.00 68 1011.6
20260904115711 82 196 0.0 2.0 0.00 0.00 0.00 68 1011.7
20260904113711 83 194 1.0 3.0 0.00 0.00 0.00 67 1011.6
20260904111711 83 190 3.0 4.0 0.00 0.00 0.00 66 1011.3
20260904105717 83 153 2.0 3.0 0.00 0.00 0.00 67 1011.7
20260904104711 83 209 2.0 3.0 0.00 0.00 0.00 67 1011.5
20260904103711 83 210 1.0 3.0 0.00 0.00 0.00 67 1011.3
20260904102711 83 211 0.0 2.0 0.00 0.00 0.00 67 1011.5
20260904101712 83 187 2.0 2.0 0.00 0.00 0.00 67 1011.0
20260904100711 83 228 1.0 2.0 0.00 0.00 0.00 67 1010.8
20260904095711 83 223 2.0 3.0 0.00 0.00 0.00 66 1011.2
20260904094712 83 191 1.0 3.0 0.00 0.00 0.00 65 1010.9
20260904093711 83 222 0.0 2.0 0.00 0.00 0.00 65 1011.0
20260904092711 83 179 0.0 2.0 0.00 0.00 0.00 64 1010.9
20260904091711 83 221 1.0 2.0 0.00 0.00 0.00 64 1010.8
20260904090711 83 222 1.0 2.0 0.00 0.00 0.00 64 1010.9
20260904085711 83 203 1.0 2.0 0.00 0.00 0.00 65 1010.8
20260904083712 83 228 0.0 2.0 0.00 0.00 0.00 66 1010.9
20260904082711 83 157 0.0 2.0 0.00 0.00 0.00 67 1011.1
20260904081712 83 228 1.0 2.0 0.00 0.00 0.00 66 1010.9
20260904075710 83 240 2.0 2.0 0.00 0.00 0.00 66 1011.0
20260904074711 83 217 0.0 4.0 0.00 0.00 0.00 65 1011.0
20260904073710 84 183 2.0 4.0 0.00 0.00 0.00 64 1011.0
20260904072717 84 213 2.0 3.0 0.00 0.00 0.00 64 1011.1
20260904070712 84 196 1.0 3.0 0.00 0.00 0.00 63 1010.9
20260904065711 84 203 1.0 4.0 0.00 0.00 0.00 63 1011.0
20260904064711 84 175 2.0 4.0 0.00 0.00 0.00 62 1010.9
20260904063712 85 180 2.0 5.0 0.00 0.00 0.00 62 1010.6
20260904062712 85 198 3.0 6.0 0.00 0.00 0.00 62 1010.7
20260904061710 85 170 3.0 6.0 0.00 0.00 0.00 61 1010.7
20260904060711 85 183 4.0 6.0 0.00 0.00 0.00 61 1010.6
20260904055710 86 188 4.0 6.0 0.00 0.00 0.00 59 1010.5
20260904054712 86 169 4.0 6.0 0.00 0.00 0.00 57 1010.4
20260904053711 86 184 2.0 5.0 0.00 0.00 0.00 57 1010.5
20260904052711 86 192 2.0 6.0 0.00 0.00 0.00 58 1010.3
20260904051712 86 178 4.0 8.0 0.00 0.00 0.00 58 1010.4
20260904050712 86 189 3.0 8.0 0.00 0.00 0.00 59 1010.1
20260904044711 86 171 5.0 9.0 0.00 0.00 0.00 57 1010.2
20260904043711 87 176 3.0 8.0 0.00 0.00 0.00 56 1010.2
20260904042711 87 167 3.0 9.0 0.00 0.00 0.00 55 1010.1
20260904041711 87 167 3.0 8.0 0.00 0.00 0.00 55 1010.1
20260904040711 87 188 6.0 10.0 0.00 0.00 0.00 54 1009.9
20260904034711 87 176 3.0 8.0 0.00 0.00 0.00 53 1010.0
20260904033711 87 180 2.0 6.0 0.00 0.00 0.00 54 1009.9
20260904032711 88 189 4.0 7.0 0.00 0.00 0.00 52 1009.8
20260904031715 88 170 4.0 6.0 0.00 0.00 0.00 50 1009.7
20260904025711 89 182 1.0 4.0 0.00 0.00 0.00 50 1009.4
20260904024711 89 246 2.0 4.0 0.00 0.00 0.00 50 1009.3
20260904023712 89 211 1.0 3.0 0.00 0.00 0.00 48 1009.0
20260904020717 89 227 2.0 4.0 0.00 0.00 0.00 45 1008.4
20260904015711 88 192 2.0 6.0 0.00 0.00 0.00 47 1008.5
20260904014711 86 234 4.0 13.0 0.00 0.00 0.00 54 1008.9
20260904013711 83 255 6.0 14.0 0.00 0.00 0.00 64 1009.4
20260904012712 85 254 7.0 21.0 0.00 0.00 0.00 61 1009.6
20260904011711 87 290 6.0 20.0 0.00 0.00 0.00 55 1009.6
20260904010711 91 299 1.0 9.0 0.00 0.00 0.00 47 1009.0
20260904005711 96 185 1.0 4.0 0.00 0.00 0.00 37 1008.6
20260904004715 96 157 1.0 3.0 0.00 0.00 0.00 37 1008.6
20260904003711 96 164 1.0 4.0 0.00 0.00 0.00 37 1008.3
20260904002710 97 156 2.0 3.0 0.00 0.00 0.00 37 1008.6
20260904001714 97 165 2.0 3.0 0.00 0.00 0.00 36 1008.3
20260904000711 97 62 0.0 6.0 0.00 0.00 0.00 36 1008.5
20260903234711 99 176 2.0 6.0 0.00 0.00 0.00 35 1008.6
20260903232711 100 153 3.0 6.0 0.00 0.00 0.00 34 1008.9
20260903231711 102 137 3.0 3.0 0.00 0.00 0.00 33 1008.7
20260903225712 101 123 2.0 9.0 0.00 0.00 0.00 33 1008.9
20260903224711 101 226 2.0 6.0 0.00 0.00 0.00 34 1009.2
20260903223711 100 67 2.0 7.0 0.00 0.00 0.00 35 1009.3
20260903222717 101 137 3.0 4.0 0.00 0.00 0.00 34 1009.4
20260903221711 100 67 2.0 9.0 0.00 0.00 0.00 35 1009.5
20260903220712 101 124 4.0 7.0 0.00 0.00 0.00 35 1009.8